Theta_e
302 305 316 319 318 318 316 315 318 319 319 317 314 313 316 316 319 325 318 321 327 335 334 337 340 341 341 341 341 338 337 335 334 333 333 334 337 337 338 338 336 333 333 334 335 326 319 321 321
303 313 317 316 312 314 313 315 316 316 315 310 310 313 315 318 316 316 318 317 326 332 337 337 340 340 341 341 340 339 337 336 333 334 333 334 336 338 338 337 337 333 334 336 333 328 323 322 321
303 313 312 313 311 310 310 311 313 311 308 308 309 308 313 315 313 314 313 312 324 328 335 337 339 339 340 341 340 339 338 337 333 335 334 335 335 338 339 336 334 332 335 335 332 331 322 322 319
304 306 306 308 309 310 308 310 310 308 307 305 304 309 310 309 308 311 311 310 311 325 330 334 338 339 339 340 340 340 338 337 334 333 334 336 335 336 339 337 335 334 335 335 333 329 322 320 317
303 305 306 307 307 306 308 307 304 306 306 305 303 306 307 305 304 303 306 307 308 311 320 331 334 338 338 338 338 339 339 336 333 333 334 335 335 336 338 338 337 336 335 334 334 332 324 320 316
303 304 306 308 306 304 304 303 303 303 303 303 303 303 306 303 302 302 303 303 304 305 308 314 326 334 337 337 337 338 339 338 335 333 333 334 334 336 338 339 338 337 336 334 333 330 322 319 316
304 305 306 304 304 303 303 302 302 303 303 304 301 304 305 304 302 302 302 302 302 302 303 304 310 322 330 336 337 338 339 338 337 335 334 333 332 332 335 338 338 337 336 334 331 327 319 319 315
302 304 304 304 305 305 302 302 301 302 303 301 301 304 304 300 301 301 301 301 302 301 301 302 303 306 314 325 333 335 336 337 338 337 335 334 333 333 334 335 337 337 335 333 329 322 317 325 314
300 305 307 305 303 304 301 302 302 301 301 301 301 301 298 299 300 300 301 301 302 302 301 301 302 303 303 306 316 328 329 332 335 336 336 335 335 334 335 336 336 336 334 331 325 318 316 326 316
304 305 305 302 302 302 302 301 301 301 302 302 302 300 297 298 298 299 300 301 301 301 302 301 302 302 303 303 303 304 309 319 322 328 331 335 335 335 335 336 336 335 333 329 323 318 319 324 320
302 305 301 302 301 301 301 301 301 301 302 301 299 297 297 296 296 297 298 299 300 301 301 301 301 301 302 303 305 303 304 304 306 312 320 329 335 335 334 335 335 334 333 327 321 323 319 321 325
302 301 301 301 300 300 300 300 301 300 300 295 295 294 295 295 296 295 296 298 299 300 300 301 301 301 301 302 303 307 303 302 303 304 308 315 324 330 333 334 332 334 331 328 321 326 323 323 324
302 301 300 300 299 300 300 300 300 299 295 294 293 294 294 294 294 294 294 297 298 298 299 300 300 301 301 301 302 302 308 310 306 302 303 306 310 318 328 333 332 331 328 326 322 327 324 323 324
300 300 300 299 300 299 299 299 298 298 293 294 293 292 292 292 292 292 293 293 296 299 298 299 300 300 301 301 301 301 303 307 312 311 302 302 304 308 317 328 331 331 329 327 324 323 330 322 323
299 301 300 299 299 299 297 299 299 295 293 294 293 292 291 291 291 291 291 291 292 296 298 298 299 300 300 301 301 301 301 303 308 309 308 301 302 303 308 322 326 329 329 329 327 323 325 328 323
300 300 303 302 299 298 297 300 299 294 294 294 292 291 290 290 290 290 289 290 291 293 295 298 299 299 299 300 301 301 301 301 302 307 305 303 301 301 303 312 325 327 327 329 325 325 326 327 326
301 304 303 302 298 298 298 299 298 294 293 293 292 291 290 289 289 288 288 289 290 292 294 296 298 299 298 300 301 301 301 301 301 302 302 302 301 300 301 310 316 322 329 330 328 326 324 325 326
304 303 303 303 301 298 298 298 298 296 293 292 291 290 289 288 287 286 287 287 289 293 294 294 298 298 299 300 300 301 301 301 301 301 301 302 301 300 301 307 317 323 325 330 327 327 326 326 326
300 301 303 302 299 297 298 298 297 296 293 292 290 289 288 287 286 286 286 286 290 292 293 294 297 298 299 301 301 301 301 301 301 301 301 301 300 300 301 303 312 322 323 325 325 328 328 326 324
301 302 303 300 299 297 297 298 298 296 294 290 289 287 286 285 285 285 285 288 289 290 291 293 297 297 297 299 302 301 301 301 301 301 301 301 300 300 301 303 311 320 323 323 327 327 328 327 325
302 302 301 299 297 296 297 300 296 294 292 290 289 286 285 284 284 284 284 287 288 288 289 292 295 296 296 298 301 302 302 301 301 301 301 301 300 301 302 303 309 319 323 320 326 328 326 324 324
302 299 297 297 297 301 297 303 298 294 293 292 289 286 284 283 284 284 284 286 287 287 288 290 294 296 295 297 300 302 302 302 302 302 302 301 301 301 303 304 309 318 321 323 324 324 325 325 325
302 297 296 295 296 296 298 298 300 293 294 292 288 285 283 283 283 283 283 285 286 287 288 290 293 295 295 296 298 301 301 302 302 302 303 302 301 302 308 309 310 320 322 324 324 325 325 324 323
296 297 295 296 297 301 297 299 300 296 293 290 287 284 283 282 282 283 282 283 285 286 287 289 292 294 295 296 298 300 301 302 302 301 305 305 302 309 313 317 316 323 323 324 325 325 325 325 324
297 299 308 308 306 307 296 297 299 291 289 287 284 282 281 282 282 282 282 282 283 285 287 289 292 294 295 296 298 299 301 301 302 305 307 304 307 312 316 317 320 322 324 323 325 325 324 324 324
296 297 303 306 307 303 295 298 300 289 286 284 282 280 282 282 281 281 281 281 282 285 288 289 290 292 294 296 298 300 301 301 304 303 304 305 309 312 315 317 319 319 323 321 323 324 323 321 321
297 300 294 295 292 295 299 298 291 289 290 288 283 283 282 281 281 281 280 281 281 283 287 289 289 290 292 295 297 299 301 302 303 304 305 306 308 310 313 314 317 318 320 320 319 321 320 318 320
296 294 299 296 303 307 304 298 301 292 289 287 283 283 281 281 280 280 280 280 280 282 284 287 288 288 289 292 294 297 299 300 301 303 304 306 307 308 309 311 312 314 317 317 316 318 317 315 314
296 297 295 294 295 302 303 305 291 289 286 284 282 282 280 280 279 279 279 279 281 282 283 284 286 286 287 289 291 293 295 296 297 300 302 303 303 303 304 306 307 309 306 310 306 304 309 309 307
293 296 296 301 301 296 296 299 289 285 283 281 282 280 280 280 279 278 279 280 281 281 282 282 283 284 285 287 289 291 291 292 294 296 298 298 300 300 301 301 302 302 301 301 301 301 301 300 300
Wind_Speed
5 10 15 8 4 4 5 5 2 3 1 1 7 6 6 7 6 4 9 12 13 11 8 6 10 10 10 13 15 19 20 21 21 21 21 20 19 21 23 23 22 22 21 20 17 13 13 15 16
6 14 11 3 4 6 7 6 8 2 4 9 6 6 7 5 3 7 6 12 12 11 11 7 11 12 13 15 14 17 21 21 24 23 22 21 20 22 23 24 23 23 21 20 16 13 14 15 15
8 14 5 3 4 7 4 2 2 1 7 5 2 4 4 2 3 5 11 12 11 12 11 10 12 14 16 15 16 16 19 22 25 24 24 24 23 23 24 23 23 24 22 19 15 13 13 15 15
7 3 3 5 12 6 2 2 4 9 3 2 9 8 2 2 4 6 10 12 11 9 11 10 11 16 18 19 19 17 18 20 24 25 24 25 24 24 25 24 24 24 22 18 16 14 12 14 15
7 2 3 4 8 3 4 4 5 9 9 8 8 8 10 3 3 7 8 10 11 9 9 9 12 12 19 17 20 20 18 19 21 24 25 25 25 25 26 26 26 25 22 20 16 14 12 14 16
4 1 3 6 3 2 2 4 6 7 9 13 10 10 9 3 3 7 8 9 11 11 8 8 8 12 14 19 19 18 19 20 20 23 24 26 26 27 27 27 28 26 23 21 19 17 14 16 18
3 3 2 4 6 4 2 3 2 5 8 5 11 8 6 7 10 16 15 13 14 13 11 9 7 9 11 12 21 20 20 21 21 23 24 25 27 26 26 27 29 27 24 22 20 18 16 18 20
3 2 3 4 3 3 2 3 3 6 7 11 4 5 7 16 30 27 24 23 18 17 16 14 11 8 8 9 14 14 18 23 22 22 24 26 27 27 27 27 28 28 25 23 20 19 17 19 20
3 3 4 3 3 1 0 4 4 7 15 12 11 14 13 24 29 31 31 29 26 21 18 18 16 13 9 6 6 15 14 12 14 24 24 26 26 27 29 29 29 29 25 23 22 20 19 21 22
2 3 1 1 2 6 9 11 14 11 17 18 19 12 19 22 21 22 25 29 28 27 24 21 19 17 15 11 7 7 8 7 8 12 17 27 28 27 27 26 28 29 26 23 22 19 20 22 25
1 2 2 4 5 7 10 14 15 15 14 7 11 17 21 19 18 18 19 22 28 29 27 26 23 20 16 17 16 9 8 7 7 8 10 14 23 27 30 27 30 32 27 23 21 20 21 26 23
3 3 4 2 3 8 13 12 10 12 10 6 9 13 17 20 21 20 20 21 23 25 27 25 26 24 21 19 18 21 11 10 11 10 9 9 13 17 21 22 23 36 25 21 21 22 23 26 27
3 1 5 9 14 12 8 11 12 14 6 6 9 12 15 19 21 22 22 23 23 25 27 25 24 25 24 22 21 20 26 23 16 14 12 12 10 11 12 13 15 22 26 25 24 25 25 25 28
1 9 13 9 7 5 7 12 7 3 4 7 10 13 16 18 20 23 22 22 24 25 25 26 23 23 24 24 22 21 21 23 25 23 16 15 15 13 14 13 13 20 26 27 26 28 29 29 28
3 5 7 3 2 4 7 12 9 2 3 9 14 16 18 19 20 20 22 24 23 23 24 25 25 20 22 24 24 21 22 22 27 23 23 19 17 18 18 17 17 22 26 35 31 34 33 30 32
2 2 8 3 4 2 2 13 2 4 6 10 13 15 18 19 19 19 20 22 23 21 22 23 23 22 19 21 23 24 25 22 19 23 21 24 20 19 21 22 21 21 25 34 42 36 34 30 31
3 9 14 10 2 5 7 15 1 5 4 8 11 14 16 18 18 18 19 20 20 20 20 20 19 17 17 18 22 23 23 22 17 21 24 20 22 21 22 24 22 22 26 33 38 38 33 34 36
7 9 10 16 7 10 18 23 17 10 7 5 9 13 15 16 18 20 19 18 18 17 15 17 18 12 16 15 19 22 22 19 18 18 17 19 20 22 22 24 24 23 26 33 37 34 32 39 35
6 10 19 17 11 10 17 19 18 11 10 6 8 13 16 18 19 18 18 17 15 13 12 13 18 16 14 11 14 19 20 18 16 15 16 17 21 21 22 24 25 29 30 30 33 35 37 33 34
7 15 14 9 9 14 17 22 16 9 9 3 10 15 16 19 19 19 18 18 14 13 12 12 15 19 16 12 12 17 19 20 17 17 18 20 23 22 21 23 23 31 33 28 32 33 35 34 37
8 10 9 17 22 10 10 10 2 6 8 6 11 13 13 16 20 21 19 18 16 15 13 11 10 16 18 16 12 14 15 15 16 16 15 20 20 22 22 24 25 31 28 27 34 36 32 35 36
6 3 12 17 7 5 2 6 4 6 7 7 13 16 16 16 17 18 19 18 17 16 13 9 8 12 16 13 11 11 12 13 13 14 14 19 21 22 21 26 28 26 31 33 33 32 31 34 38
7 14 13 3 4 5 5 4 2 3 7 4 14 16 16 16 17 19 18 17 15 15 14 10 6 7 11 10 10 9 10 11 12 13 15 18 19 19 22 24 28 27 31 34 34 37 34 36 40
10 6 3 1 2 4 4 2 5 3 2 7 13 17 16 18 17 16 17 16 15 14 13 10 8 6 8 8 8 8 9 9 10 12 14 15 15 15 17 22 26 30 27 34 35 36 35 40 43
9 7 4 3 2 3 4 5 9 5 4 5 11 16 14 16 17 16 18 18 16 15 15 11 8 5 5 5 5 6 7 7 8 8 10 13 12 14 16 21 25 28 29 32 32 37 36 40 34
6 3 2 7 5 7 2 6 2 1 4 7 10 11 11 15 15 16 15 15 14 15 16 13 10 7 4 1 2 4 4 4 7 6 7 10 12 12 13 17 24 28 27 28 27 28 27 23 32
4 2 2 4 2 4 4 4 4 2 5 12 11 11 13 15 16 15 15 14 14 13 14 14 12 8 4 1 2 4 5 6 8 8 7 9 10 10 13 15 19 22 25 23 22 23 19 23 19
2 7 1 2 5 7 5 5 5 2 11 15 11 13 13 14 14 14 13 14 13 12 11 11 11 9 6 2 3 5 6 7 9 8 9 9 10 10 12 14 17 20 22 22 25 28 22 24 23
3 3 3 2 3 4 6 1 2 3 9 13 12 12 11 12 13 13 13 13 12 10 9 9 8 8 6 4 5 7 9 9 10 12 13 12 12 13 14 14 18 19 22 21 29 36 31 29 30
1 2 3 2 2 4 4 6 4 2 5 10 12 9 8 8 11 11 12 12 11 11 10 12 11 10 9 7 8 10 13 13 14 17 18 18 18 20 21 23 23 29 30 28 27 34 32 31 28
Wind_Direction
90 131 139 131 198 249 254 256 283 231 186 80 314 270 290 295 276 321 333 313 324 321 303 263 210 220 233 236 230 222 218 210 206 202 196 195 192 191 191 190 191 190 190 194 195 206 201 198 199
116 139 140 152 236 233 243 247 244 289 315 316 300 278 243 265 304 313 328 330 330 318 314 266 224 217 219 232 235 231 216 215 214 206 204 201 200 199 197 196 198 195 194 196 207 214 205 193 197
136 153 182 208 218 246 267 243 347 3 329 326 302 325 311 313 336 318 320 336 339 323 319 297 238 223 220 223 235 238 223 217 216 211 209 207 206 207 204 202 199 197 200 207 210 203 209 200 194
141 155 84 233 237 249 280 100 339 306 305 38 344 274 291 278 319 306 310 318 331 325 308 295 265 235 225 221 217 228 227 226 221 216 212 213 211 211 213 208 202 201 205 215 211 209 218 206 197
156 152 203 245 255 269 261 313 307 297 299 302 325 277 289 277 311 310 292 294 309 323 319 296 276 256 246 250 228 216 221 224 224 222 218 216 217 216 216 215 210 207 210 211 219 221 225 211 199
131 195 218 245 239 241 255 310 289 277 285 298 294 292 270 184 294 294 305 304 305 307 307 301 286 267 252 240 233 228 225 217 222 225 224 223 223 223 221 220 216 213 213 214 220 229 225 211 200
188 210 304 288 287 264 190 339 267 311 295 319 325 279 271 230 300 309 303 310 311 298 288 284 287 278 268 254 242 232 226 226 223 218 224 226 229 229 229 225 220 216 217 219 225 232 229 210 201
134 224 206 211 257 279 148 320 305 294 298 313 298 273 287 303 305 307 308 301 297 294 291 287 287 282 277 263 238 228 226 228 228 228 223 223 226 228 230 230 224 222 220 224 229 233 231 209 203
124 206 242 242 214 349 250 312 295 289 286 285 276 293 306 308 305 300 296 296 292 278 283 284 281 284 277 268 259 246 259 240 226 232 229 226 227 228 230 228 227 226 227 230 230 229 227 205 201
225 234 254 132 229 271 283 287 297 289 282 280 278 273 312 316 324 320 309 299 296 289 283 282 277 278 276 264 263 258 240 239 256 259 249 232 229 232 233 233 231 231 232 227 227 227 219 203 200
152 269 138 233 248 285 289 283 286 278 282 296 299 306 310 319 322 321 319 308 299 294 288 283 276 273 272 267 254 273 273 264 258 256 253 246 234 235 234 235 237 232 220 220 222 222 210 204 198
247 238 247 296 266 299 291 293 266 267 278 278 292 302 312 314 315 316 310 309 304 290 286 280 276 269 264 261 262 253 270 273 260 258 258 250 239 241 245 239 247 231 201 215 220 218 209 207 204
241 292 272 268 289 290 267 255 269 268 274 294 306 311 311 308 308 306 304 298 300 297 288 280 271 266 261 255 256 261 254 260 277 265 253 256 255 244 230 240 238 226 231 217 220 226 217 212 212
222 293 290 291 282 281 278 280 279 220 295 309 318 318 315 311 309 306 305 303 291 287 290 282 270 261 257 252 249 250 251 255 256 270 271 257 252 253 244 234 231 227 226 220 216 227 226 220 218
296 296 302 266 201 262 305 264 233 228 308 312 316 316 313 311 308 304 303 301 302 289 288 286 276 262 253 247 242 241 247 245 253 253 267 266 257 249 245 227 232 229 230 227 225 246 228 227 223
279 249 337 68 278 276 303 289 189 230 317 312 316 316 316 314 313 310 306 302 298 295 291 289 282 273 256 246 236 231 237 244 242 250 262 265 260 255 245 232 227 237 232 221 226 218 220 225 227
58 321 322 329 205 284 239 292 77 241 276 300 316 316 319 317 317 316 312 309 303 293 290 291 285 285 274 245 233 228 224 231 236 241 244 245 252 253 242 233 235 234 233 229 223 212 219 227 230
318 320 311 307 327 269 271 273 276 248 247 280 317 324 322 321 323 323 322 318 304 292 288 294 280 277 274 255 227 223 234 239 239 239 244 241 247 248 242 233 224 226 230 232 219 223 228 220 226
286 292 301 304 333 282 268 278 287 254 230 256 321 332 330 325 325 326 329 327 310 295 295 303 270 264 273 261 222 213 217 230 237 252 253 242 242 244 242 234 225 225 227 225 231 233 222 213 226
295 304 308 313 273 294 280 287 284 228 230 251 328 337 329 326 330 334 340 338 329 320 314 305 269 263 268 262 230 214 211 218 231 245 253 250 239 239 237 231 230 223 227 229 224 230 220 215 219
300 286 310 305 322 276 294 273 232 200 204 224 324 332 330 330 331 333 341 347 340 335 331 322 287 270 265 261 241 223 218 218 230 244 245 247 246 244 234 226 224 227 226 226 219 219 216 218 217
309 104 317 319 320 316 3 296 238 186 210 223 338 337 335 335 334 331 338 346 347 342 343 331 299 272 270 265 247 224 221 220 217 237 246 251 250 246 237 228 224 228 227 230 224 221 222 216 207
261 321 308 292 260 312 179 258 177 190 220 307 344 341 337 336 334 330 336 346 346 347 348 348 329 281 280 270 252 229 229 232 239 249 251 254 252 247 238 230 225 229 225 233 228 226 222 220 217
307 311 281 203 251 248 168 262 266 209 218 317 342 342 337 335 335 332 336 348 354 355 354 357 351 318 291 276 251 238 243 249 254 255 251 256 253 246 242 231 225 227 231 227 226 228 223 220 220
17 336 327 271 253 308 167 255 280 178 211 302 330 330 336 334 335 337 341 345 352 360 7 7 6 339 301 279 257 245 246 258 264 237 233 260 254 241 235 226 223 218 217 225 226 219 225 225 225
57 10 34 299 316 313 284 240 314 117 250 275 319 325 338 340 340 338 339 339 345 2 12 12 15 9 356 287 235 231 229 255 237 234 243 237 236 230 228 222 214 219 210 224 216 221 215 229 210
116 60 87 265 201 274 247 260 144 202 312 324 341 343 352 344 341 338 339 344 348 1 16 13 16 15 16 346 218 196 207 218 208 190 221 220 221 218 213 211 200 196 199 189 185 199 213 189 215
42 139 204 159 309 296 280 281 309 341 331 319 341 347 350 342 339 338 345 350 355 7 18 20 14 13 25 53 168 173 174 181 173 178 203 198 190 180 185 184 187 180 185 184 177 191 185 175 163
157 161 134 244 243 294 310 349 69 31 319 308 328 340 350 338 331 338 348 358 8 13 23 28 25 32 49 75 118 140 143 152 160 165 165 164 159 154 149 163 158 159 153 157 147 137 143 142 134
24 171 165 208 164 237 281 281 144 94 315 301 323 334 346 329 327 341 353 5 14 24 29 36 36 47 62 86 112 131 129 134 140 141 140 137 142 141 137 135 136 128 123 122 121 113 115 118 115